VA3NNW-13 Weather Reports


Display with metric or nautical units.
time (UTC)temp
F
wind
direction
speed
MPH
gust
MPH
rain 1hr
in
rain 24hr
in
rain mn
in
humidity
%
barometer
mb
20240525110926 59 90 7.0 10.0 0.00 0.00 0.00 79
20240525110831 59 113 7.0 10.0 0.00 0.00 0.00 79
20240525110736 59 113 7.0 10.0 0.00 0.00 0.00 79
20240525110642 59 113 7.0 10.0 0.00 0.00 0.00 79
20240525110547 59 113 6.0 10.0 0.00 0.00 0.00 79
20240525110452 59 113 6.0 10.0 0.00 0.00 0.00 79
20240525110357 58 113 6.0 10.0 0.00 0.00 0.00 51
20240525110210 58 113 6.0 10.0 0.00 0.00 0.00 80
20240525110019 58 113 6.0 10.0 0.00 0.00 0.00 80
20240525105924 58 113 6.0 10.0 0.00 0.00 0.00 80
20240525105829 58 113 6.0 10.0 0.00 0.00 0.00 80
20240525105734 58 68 6.0 10.0 0.00 0.00 0.00 80
20240525105639 58 68 6.0 10.0 0.00 0.00 0.00 81
20240525105544 58 113 5.0 10.0 0.00 0.00 0.00 81
20240525105449 58 113 5.0 10.0 0.00 0.00 0.00 81
20240525105355 58 90 6.0 10.0 0.00 0.00 0.00 81
20240525105300 58 90 5.0 10.0 0.00 0.00 0.00 81
20240525105205 58 45 5.0 10.0 0.00 0.00 0.00 81
20240525105110 57 45 5.0 10.0 0.00 0.00 0.00 81
20240525105016 57 113 5.0 10.0 0.00 0.00 0.00 81
20240525104921 57 113 6.0 10.0 0.00 0.00 0.00 81
20240525104826 57 45 6.0 10.0 0.00 0.00 0.00 81
20240525104732 57 45 6.0 10.0 0.00 0.00 0.00 81
20240525104637 57 158 6.0 10.0 0.00 0.00 0.00 81
20240525104542 57 158 6.0 10.0 0.00 0.00 0.00 81
20240525104448 57 68 7.0 10.0 0.00 0.00 0.00 81
20240525104352 57 68 6.0 10.0 0.00 0.00 0.00 51
20240525104203 57 90 6.0 10.0 0.00 0.00 0.00 81
20240525104108 57 45 6.0 10.0 0.00 0.00 0.00 81
20240525104014 57 45 6.0 10.0 0.00 0.00 0.00 81
20240525103919 57 113 7.0 10.0 0.00 0.00 0.00 81
20240525103824 57 113 7.0 10.0 0.00 0.00 0.00 81
20240525103729 57 90 7.0 10.0 0.00 0.00 0.00 81
20240525103634 57 90 7.0 10.0 0.00 0.00 0.00 80
20240525103540 57 90 7.0 10.0 0.00 0.00 0.00 80
20240525103350 57 68 7.0 10.0 0.00 0.00 0.00 80
20240525103255 57 68 7.0 10.0 0.00 0.00 0.00 80
20240525103201 57 90 7.0 10.0 0.00 0.00 0.00 80
20240525103106 57 90 7.0 10.0 0.00 0.00 0.00 80
20240525103011 57 113 7.0 10.0 0.00 0.00 0.00 80
20240525102916 57 113 7.0 10.0 0.00 0.00 0.00 80
20240525102822 57 180 7.0 10.0 0.00 0.00 0.00 80
20240525102727 57 180 7.0 10.0 0.00 0.00 0.00 80
20240525102632 57 68 7.0 10.0 0.00 0.00 0.00 80
20240525102537 57 68 7.0 10.0 0.00 0.00 0.00 80
20240525102442 57 113 7.0 10.0 0.00 0.00 0.00 80
20240525102348 57 113 7.0 10.0 0.00 0.00 0.00 80
20240525102253 57 90 7.0 10.0 0.00 0.00 0.00 80
20240525102158 57 90 7.0 10.0 0.00 0.00 0.00 80
20240525102103 57 90 7.0 10.0 0.00 0.00 0.00 80
20240525102010 57 90 6.0 10.0 0.00 0.00 0.00 80
20240525101914 57 113 6.0 10.0 0.00 0.00 0.00 80
20240525101819 57 113 6.0 9.0 0.00 0.00 0.00 80
20240525101724 57 90 6.0 8.0 0.00 0.00 0.00 80
20240525101630 57 90 6.0 8.0 0.00 0.00 0.00 80
20240525101535 57 90 6.0 8.0 0.00 0.00 0.00 80
20240525101440 57 90 5.0 8.0 0.00 0.00 0.00 80
20240525101345 57 113 5.0 8.0 0.00 0.00 0.00 80
20240525101250 57 113 5.0 8.0 0.00 0.00 0.00 81
20240525101155 57 113 5.0 8.0 0.00 0.00 0.00 81
20240525101101 57 113 5.0 8.0 0.00 0.00 0.00 81
20240525101006 57 113 5.0 8.0 0.00 0.00 0.00 81
20240525100911 57 113 5.0 8.0 0.00 0.00 0.00 81
20240525100817 57 90 5.0 7.0 0.00 0.00 0.00 81
20240525100722 57 90 5.0 7.0 0.00 0.00 0.00 81
20240525100627 57 90 4.0 6.0 0.00 0.00 0.00 81
20240525100533 57 90 4.0 6.0 0.00 0.00 0.00 81
20240525100438 57 158 4.0 6.0 0.00 0.00 0.00 81
20240525100343 57 158 4.0 6.0 0.00 0.00 0.00 81
20240525100248 57 90 4.0 6.0 0.00 0.00 0.00 81
20240525100153 57 90 4.0 6.0 0.00 0.00 0.00 81
20240525100059 57 135 4.0 6.0 0.00 0.00 0.00 81
20240525100004 57 135 4.0 6.0 0.00 0.00 0.00 81
20240525095909 57 90 4.0 6.0 0.00 0.00 0.00 81
20240525095720 57 90 4.0 6.0 0.00 0.00 0.00 81
20240525095625 57 113 4.0 6.0 0.00 0.00 0.00 81
20240525095530 57 113 4.0 6.0 0.00 0.00 0.00 81
20240525095435 57 113 4.0 6.0 0.00 0.00 0.00 81
20240525095340 57 113 4.0 6.0 0.00 0.00 0.00 81
20240525095246 57 113 4.0 6.0 0.00 0.00 0.00 81
20240525095151 57 113 4.0 6.0 0.00 0.00 0.00 81
20240525095057 57 113 4.0 6.0 0.00 0.00 0.00 81
20240525095002 57 113 4.0 6.0 0.00 0.00 0.00 81
20240525094907 57 90 4.0 6.0 0.00 0.00 0.00 81
20240525094812 57 90 4.0 6.0 0.00 0.00 0.00 81
20240525094718 57 158 5.0 6.0 0.00 0.00 0.00 81
20240525094623 57 158 5.0 6.0 0.00 0.00 0.00 81
20240525094528 57 113 5.0 6.0 0.00 0.00 0.00 81
20240525094433 57 113 5.0 6.0 0.00 0.00 0.00 81
20240525094338 57 90 5.0 6.0 0.00 0.00 0.00 81
20240525094243 57 90 5.0 6.0 0.00 0.00 0.00 81
20240525094149 57 113 4.0 6.0 0.00 0.00 0.00 81
20240525093959 57 113 4.0 6.0 0.00 0.00 0.00 82
20240525093905 57 45 4.0 6.0 0.00 0.00 0.00 82
20240525093810 57 45 4.0 8.0 0.00 0.00 0.00 82
20240525093715 57 113 4.0 8.0 0.00 0.00 0.00 82
20240525093620 57 113 4.0 8.0 0.00 0.00 0.00 82
20240525093526 57 113 4.0 8.0 0.00 0.00 0.00 82
20240525093431 57 113 4.0 8.0 0.00 0.00 0.00 82
20240525093336 57 68 4.0 8.0 0.00 0.00 0.00 82
20240525093242 57 68 4.0 8.0 0.00 0.00 0.00 82
20240525093147 57 90 4.0 8.0 0.00 0.00 0.00 82
20240525093052 57 90 4.0 8.0 0.00 0.00 0.00 83
20240525092903 57 113 4.0 8.0 0.00 0.00 0.00 83
20240525092808 57 113 4.0 8.0 0.00 0.00 0.00 83
20240525092713 57 113 4.0 8.0 0.00 0.00 0.00 83
20240525092618 57 113 4.0 8.0 0.00 0.00 0.00 83
20240525092524 57 90 4.0 8.0 0.00 0.00 0.00 83
20240525092429 57 90 5.0 8.0 0.00 0.00 0.00 83
20240525092334 57 113 5.0 8.0 0.00 0.00 0.00 83
20240525092239 57 113 5.0 8.0 0.00 0.00 0.00 83
20240525092144 57 113 5.0 7.0 0.00 0.00 0.00 83
20240525092050 57 113 5.0 8.0 0.00 0.00 0.00 84
20240525091956 57 135 5.0 8.0 0.00 0.00 0.00 84
20240525091900 57 135 5.0 8.0 0.00 0.00 0.00 84
20240525091805 57 158 5.0 8.0 0.00 0.00 0.00 84
20240525091711 57 158 6.0 9.0 0.00 0.00 0.00 84
20240525091616 57 158 6.0 9.0 0.00 0.00 0.00 84
20240525091521 57 158 6.0 9.0 0.00 0.00 0.00 85
20240525091426 57 135 6.0 9.0 0.00 0.00 0.00 85
20240525091332 57 135 6.0 9.0 0.00 0.00 0.00 85
20240525091237 57 113 6.0 9.0 0.00 0.00 0.00 85
20240525091142 57 113 6.0 9.0 0.00 0.00 0.00 85
20240525091048 57 113 6.0 9.0 0.00 0.00 0.00 85
20240525090953 57 113 6.0 9.0 0.00 0.00 0.00 85
20240525090858 57 90 6.0 9.0 0.00 0.00 0.00 85
20240525090803 57 90 6.0 9.0 0.00 0.00 0.00 85
20240525090708 57 90 6.0 9.0 0.00 0.00 0.00 85
20240525090614 57 90 6.0 9.0 0.00 0.00 0.00 85
20240525090519 57 113 6.0 9.0 0.00 0.00 0.00 85
20240525090424 57 113 6.0 9.0 0.00 0.00 0.00 85
20240525090329 57 135 6.0 9.0 0.00 0.00 0.00 85
20240525090234 57 135 6.0 9.0 0.00 0.00 0.00 86
20240525090140 57 135 6.0 9.0 0.00 0.00 0.00 86
20240525090045 56 135 6.0 9.0 0.00 0.00 0.00 86
20240525085950 56 90 6.0 9.0 0.00 0.00 0.00 86
20240525085855 56 90 6.0 9.0 0.00 0.00 0.00 86
20240525085800 56 113 6.0 9.0 0.00 0.00 0.00 86
20240525085706 56 113 6.0 8.0 0.00 0.00 0.00 87
20240525085611 56 90 6.0 8.0 0.00 0.00 0.00 87
20240525085516 56 90 6.0 8.0 0.00 0.00 0.00 89
20240525085421 56 113 6.0 8.0 0.00 0.00 0.00 89
20240525085327 56 113 6.0 8.0 0.00 0.00 0.00 90
20240525085140 56 90 6.0 8.0 0.00 0.00 0.00 90
20240525085043 56 113 6.0 8.0 0.00 0.00 0.00 90
20240525084948 56 113 6.0 8.0 0.00 0.00 0.00 90
20240525084853 56 135 6.0 8.0 0.00 0.00 0.00 90
20240525084758 56 135 6.0 8.0 0.00 0.00 0.00 91
20240525084704 56 135 6.0 8.0 0.00 0.00 0.00 91
20240525084609 56 315 6.0 8.0 0.00 0.00 0.00 91
20240525084514 56 315 5.0 8.0 0.00 0.00 0.00 91
20240525084420 56 113 5.0 8.0 0.00 0.00 0.00 91
20240525084324 56 113 5.0 8.0 0.00 0.00 0.00 91
20240525084230 56 90 5.0 8.0 0.00 0.00 0.00 91
20240525084135 55 90 5.0 8.0 0.00 0.00 0.00 91
20240525083945 55 45 5.0 8.0 0.00 0.00 0.00 91
20240525083850 55 68 5.0 8.0 0.00 0.00 0.00 91
20240525083756 55 68 5.0 8.0 0.00 0.00 0.00 92
20240525083701 55 113 5.0 8.0 0.00 0.00 0.00 92
20240525083606 55 113 5.0 7.0 0.00 0.00 0.00 92
20240525083512 55 113 4.0 6.0 0.00 0.00 0.00 92
20240525083417 55 113 4.0 6.0 0.00 0.00 0.00 92
20240525083322 55 158 4.0 6.0 0.00 0.00 0.00 92
20240525083227 56 158 4.0 6.0 0.00 0.00 0.00 92
20240525083133 56 90 4.0 6.0 0.00 0.00 0.00 92
20240525083038 56 90 4.0 6.0 0.00 0.00 0.00 93
20240525082943 56 158 4.0 6.0 0.00 0.00 0.00 93
20240525082848 55 158 4.0 6.0 0.00 0.00 0.00 93
20240525082753 55 90 4.0 6.0 0.00 0.00 0.00 93
20240525082659 55 90 4.0 6.0 0.00 0.00 0.00 51
20240525082414 55 113 4.0 6.0 0.00 0.00 0.00 93
20240525082319 55 113 4.0 6.0 0.00 0.00 0.00 93
20240525082225 55 113 4.0 6.0 0.00 0.00 0.00 93
20240525082130 55 113 4.0 6.0 0.00 0.00 0.00 93
20240525082035 55 135 4.0 6.0 0.00 0.00 0.00 93
20240525081941 55 135 4.0 6.0 0.00 0.00 0.00 93
20240525081846 55 158 4.0 7.0 0.00 0.00 0.00 93
20240525081751 56 158 5.0 7.0 0.00 0.00 0.00 92
20240525081656 56 135 5.0 7.0 0.00 0.00 0.00 92
20240525081602 56 135 5.0 7.0 0.00 0.00 0.00 92
20240525081507 56 135 5.0 7.0 0.00 0.00 0.00 92
20240525081412 56 135 5.0 7.0 0.00 0.00 0.00 93
20240525081317 56 113 5.0 7.0 0.00 0.00 0.00 93
20240525081222 55 113 5.0 7.0 0.00 0.00 0.00 93
20240525081128 55 90 5.0 7.0 0.00 0.00 0.00 93
20240525081033 55 90 5.0 7.0 0.00 0.00 0.00 93
20240525080938 55 113 4.0 7.0 0.00 0.00 0.00 93
20240525080844 55 113 4.0 7.0 0.00 0.00 0.00 92
20240525080749 55 113 4.0 7.0 0.00 0.00 0.00 92
20240525080654 55 113 4.0 7.0 0.00 0.00 0.00 92
20240525080559 55 68 4.0 7.0 0.00 0.00 0.00 92
20240525080505 56 68 4.0 7.0 0.00 0.00 0.00 91
20240525080410 56 135 4.0 7.0 0.00 0.00 0.00 91
20240525080315 56 135 4.0 5.0 0.00 0.00 0.00 91
20240525080202 56 158 4.0 5.0 0.00 0.00 0.00 91
20240525080107 56 113 4.0 5.0 0.00 0.00 0.00 91
20240525080013 56 90 4.0 5.0 0.00 0.00 0.00 91
20240525075917 56 90 4.0 5.0 0.00 0.00 0.00 90
20240525075823 56 113 4.0 5.0 0.00 0.00 0.00 90
20240525075728 56 113 4.0 5.0 0.00 0.00 0.00 90
20240525075633 56 113 4.0 5.0 0.00 0.00 0.00 90
20240525075539 56 113 4.0 5.0 0.00 0.00 0.00 90
20240525075444 56 113 4.0 5.0 0.00 0.00 0.00 90
20240525075349 56 113 4.0 5.0 0.00 0.00 0.00 89
20240525075254 56 90 4.0 5.0 0.00 0.00 0.00 89
20240525075200 56 90 4.0 5.0 0.00 0.00 0.00 89
20240525075105 56 113 4.0 5.0 0.00 0.00 0.00 89
20240525075010 57 113 3.0 5.0 0.00 0.00 0.00 87
20240525074915 57 68 3.0 5.0 0.00 0.00 0.00 87
20240525074820 57 68 3.0 5.0 0.00 0.00 0.00 87
20240525074726 57 113 3.0 5.0 0.00 0.00 0.00 87
20240525074631 57 113 3.0 6.0 0.00 0.00 0.00 86
20240525074536 57 45 3.0 6.0 0.00 0.00 0.00 86
20240525074442 57 45 3.0 6.0 0.00 0.00 0.00 86
20240525074347 57 113 3.0 6.0 0.00 0.00 0.00 86
20240525074252 57 113 3.0 6.0 0.00 0.00 0.00 85
20240525074157 57 113 3.0 6.0 0.00 0.00 0.00 85
20240525074103 57 113 3.0 6.0 0.00 0.00 0.00 85
20240525074008 57 90 3.0 6.0 0.00 0.00 0.00 85
20240525073914 57 90 3.0 6.0 0.00 0.00 0.00 85
20240525073818 57 135 3.0 6.0 0.00 0.00 0.00 85
20240525073724 57 135 3.0 6.0 0.00 0.00 0.00 85
20240525073629 57 68 3.0 6.0 0.00 0.00 0.00 85
20240525073534 57 68 3.0 6.0 0.00 0.00 0.00 85
20240525073439 57 68 3.0 6.0 0.00 0.00 0.00 85
20240525073344 57 68 3.0 6.0 0.00 0.00 0.00 85
20240525073250 57 113 3.0 6.0 0.00 0.00 0.00 85
20240525073155 57 113 3.0 6.0 0.00 0.00 0.00 85
20240525073100 57 90 3.0 6.0 0.00 0.00 0.00 85
20240525073005 57 90 3.0 5.0 0.00 0.00 0.00 85
20240525072911 57 113 3.0 5.0 0.00 0.00 0.00 85
20240525072816 57 113 3.0 6.0 0.00 0.00 0.00 85
20240525072721 57 113 4.0 6.0 0.00 0.00 0.00 85
20240525072626 57 113 3.0 6.0 0.00 0.00 0.00 85
20240525072532 57 113 4.0 6.0 0.00 0.00 0.00 85
20240525072437 57 113 4.0 6.0 0.00 0.00 0.00 85
20240525072342 57 113 4.0 6.0 0.00 0.00 0.00 85
20240525072248 57 113 4.0 6.0 0.00 0.00 0.00 85
20240525072153 57 113 4.0 6.0 0.00 0.00 0.00 85
20240525072058 57 113 4.0 6.0 0.00 0.00 0.00 85
20240525072003 57 45 3.0 6.0 0.00 0.00 0.00 85
20240525071909 57 45 3.0 6.0 0.00 0.00 0.00 85
20240525071814 57 90 3.0 6.0 0.00 0.00 0.00 85
20240525071719 57 90 3.0 6.0 0.00 0.00 0.00 85
20240525071624 57 135 4.0 6.0 0.00 0.00 0.00 85
20240525071529 57 135 4.0 6.0 0.00 0.00 0.00 85
20240525071435 57 113 4.0 6.0 0.00 0.00 0.00 85
20240525071340 57 113 4.0 6.0 0.00 0.00 0.00 85
20240525071245 57 113 4.0 5.0 0.00 0.00 0.00 85
20240525071056 57 113 4.0 5.0 0.00 0.00 0.00 85
20240525071001 57 113 4.0 5.0 0.00 0.00 0.00 85
20240525070906 57 90 4.0 5.0 0.00 0.00 0.00 85
20240525070811 57 90 4.0 5.0 0.00 0.00 0.00 86
20240525070717 57 113 4.0 5.0 0.00 0.00 0.00 86
20240525070622 57 113 4.0 5.0 0.00 0.00 0.00 86
20240525070527 57 90 3.0 5.0 0.00 0.00 0.00 86
20240525070433 57 90 4.0 5.0 0.00 0.00 0.00 86
20240525070338 57 68 4.0 5.0 0.00 0.00 0.00 86
20240525070243 57 68 4.0 5.0 0.00 0.00 0.00 86
20240525070148 57 68 4.0 5.0 0.00 0.00 0.00 86
20240525070053 57 68 4.0 5.0 0.00 0.00 0.00 86
20240525065959 57 90 4.0 5.0 0.00 0.00 0.00 86
20240525065904 57 90 4.0 5.0 0.00 0.00 0.00 86
20240525065809 57 45 4.0 5.0 0.00 0.00 0.00 86
20240525065714 57 45 4.0 5.0 0.00 0.00 0.00 86
20240525065619 57 113 4.0 5.0 0.00 0.00 0.00 86
20240525065525 57 113 4.0 5.0 0.00 0.00 0.00 86
20240525065430 57 113 4.0 5.0 0.00 0.00 0.00 86
20240525065335 57 113 4.0 5.0 0.00 0.00 0.00 86
20240525065240 57 113 4.0 5.0 0.00 0.00 0.00 86
20240525065146 57 113 4.0 5.0 0.00 0.00 0.00 86
20240525065051 57 90 3.0 5.0 0.00 0.00 0.00 86
20240525064956 57 90 3.0 5.0 0.00 0.00 0.00 86
20240525064902 57 90 3.0 5.0 0.00 0.00 0.00 86
20240525064807 57 90 3.0 5.0 0.00 0.00 0.00 86
20240525064712 57 90 3.0 5.0 0.00 0.00 0.00 86
20240525064617 57 90 3.0 5.0 0.00 0.00 0.00 86
20240525064523 57 113 3.0 5.0 0.00 0.00 0.00 86
20240525064333 57 113 3.0 5.0 0.00 0.00 0.00 86
20240525064238 57 113 3.0 5.0 0.00 0.00 0.00 86
20240525064143 57 113 3.0 4.0 0.00 0.00 0.00 86
20240525064049 58 113 3.0 4.0 0.00 0.00 0.00 86
20240525063954 58 113 3.0 4.0 0.00 0.00 0.00 86
20240525063859 58 113 3.0 4.0 0.00 0.00 0.00 86
20240525063804 58 113 3.0 4.0 0.00 0.00 0.00 86
20240525063710 58 113 3.0 4.0 0.00 0.00 0.00 86
20240525063615 58 113 3.0 4.0 0.00 0.00 0.00 86
20240525063520 58 113 3.0 6.0 0.00 0.00 0.00 86
20240525063425 58 90 3.0 6.0 0.00 0.00 0.00 86
20240525063331 58 90 3.0 6.0 0.00 0.00 0.00 86
20240525063236 58 113 3.0 6.0 0.00 0.00 0.00 86
20240525063141 58 113 3.0 6.0 0.00 0.00 0.00 86
20240525063047 58 68 3.0 6.0 0.00 0.00 0.00 86
20240525062952 58 68 3.0 6.0 0.00 0.00 0.00 86
20240525062857 58 45 4.0 6.0 0.00 0.00 0.00 86
20240525062802 58 45 4.0 6.0 0.00 0.00 0.00 86
20240525062707 58 113 4.0 6.0 0.00 0.00 0.00 86
20240525062612 58 113 4.0 6.0 0.00 0.00 0.00 86
20240525062518 58 113 4.0 6.0 0.00 0.00 0.00 86
20240525062423 58 135 4.0 6.0 0.00 0.00 0.00 86
20240525062328 58 135 4.0 6.0 0.00 0.00 0.00 86
20240525062234 58 90 4.0 6.0 0.00 0.00 0.00 86
20240525062139 58 90 4.0 6.0 0.00 0.00 0.00 86
20240525062044 58 113 4.0 6.0 0.00 0.00 0.00 86
20240525061950 58 113 4.0 5.0 0.00 0.00 0.00 86
20240525061855 58 113 4.0 5.0 0.00 0.00 0.00 86
20240525061800 58 113 4.0 5.0 0.00 0.00 0.00 86
20240525061706 58 113 4.0 5.0 0.00 0.00 0.00 86
20240525061610 58 113 4.0 5.0 0.00 0.00 0.00 86
20240525061515 58 90 4.0 5.0 0.00 0.00 0.00 86
20240525061421 58 90 4.0 5.0 0.00 0.00 0.00 86
20240525061326 58 45 4.0 5.0 0.00 0.00 0.00 86
20240525061231 58 45 4.0 5.0 0.00 0.00 0.00 86
20240525061137 58 90 3.0 5.0 0.00 0.00 0.00 86
20240525061042 58 90 3.0 5.0 0.00 0.00 0.00 86
20240525060947 58 90 3.0 5.0 0.00 0.00 0.00 86
20240525060852 58 90 3.0 5.0 0.00 0.00 0.00 86
20240525060758 58 113 3.0 5.0 0.00 0.00 0.00 86
20240525060703 58 113 3.0 5.0 0.00 0.00 0.00 86
20240525060608 58 113 2.0 5.0 0.00 0.00 0.00 86
20240525060514 58 113 2.0 5.0 0.00 0.00 0.00 86
20240525060419 58 113 2.0 5.0 0.00 0.00 0.00 86
20240525060324 58 113 2.0 5.0 0.00 0.00 0.00 86
20240525060229 58 90 2.0 5.0 0.00 0.00 0.00 86
20240525060134 59 90 2.0 5.0 0.00 0.00 0.00 86
20240525060039 59 90 2.0 4.0 0.00 0.00 0.00 86
20240525055944 59 90 2.0 3.0 0.00 0.00 0.00 86
20240525055850 59 113 2.0 3.0 0.00 0.00 0.00 86
20240525055755 59 113 2.0 3.0 0.00 0.00 0.00 86
20240525055700 59 90 2.0 3.0 0.00 0.00 0.00 86
20240525055606 59 90 2.0 3.0 0.00 0.00 0.00 86
20240525055511 59 68 2.0 3.0 0.00 0.00 0.00 86
20240525055416 59 68 2.0 3.0 0.00 0.00 0.00 86
20240525055322 59 68 2.0 3.0 0.00 0.00 0.00 86
20240525055227 59 68 2.0 3.0 0.00 0.00 0.00 86
20240525055132 59 113 2.0 3.0 0.00 0.00 0.00 86
20240525055037 59 113 2.0 3.0 0.00 0.00 0.00 86
20240525054943 59 45 2.0 3.0 0.00 0.00 0.00 86
20240525054848 59 45 2.0 3.0 0.00 0.00 0.00 85
20240525054753 59 68 2.0 3.0 0.00 0.00 0.00 85
20240525054659 59 68 2.0 3.0 0.00 0.00 0.00 85
20240525054603 59 113 2.0 3.0 0.00 0.00 0.00 85
20240525054509 59 113 2.0 3.0 0.00 0.00 0.00 85
20240525054414 59 113 2.0 3.0 0.00 0.00 0.00 85
20240525054319 59 113 1.0 3.0 0.00 0.00 0.00 85
20240525054224 59 113 1.0 3.0 0.00 0.00 0.00 85
20240525054130 59 113 1.0 3.0 0.00 0.00 0.00 85
20240525054035 59 45 1.0 3.0 0.00 0.00 0.00 85
20240525053940 59 45 1.0 3.0 0.00 0.00 0.00 85
20240525053845 59 45 1.0 3.0 0.00 0.00 0.00 85
20240525053751 59 45 1.0 3.0 0.00 0.00 0.00 85
20240525053656 59 68 1.0 3.0 0.00 0.00 0.00 85
20240525053601 59 68 1.0 3.0 0.00 0.00 0.00 85
20240525053507 59 135 2.0 4.0 0.00 0.00 0.00 85
20240525053412 59 135 2.0 4.0 0.00 0.00 0.00 85
20240525053317 59 113 2.0 4.0 0.00 0.00 0.00 85
20240525053222 59 113 2.0 4.0 0.00 0.00 0.00 85
20240525053128 59 23 2.0 4.0 0.00 0.00 0.00 85
20240525053033 59 23 2.0 4.0 0.00 0.00 0.00 85
20240525052938 59 68 2.0 4.0 0.00 0.00 0.00 85
20240525052843 59 68 2.0 4.0 0.00 0.00 0.00 84
20240525052748 59 90 2.0 4.0 0.00 0.00 0.00 84
20240525052654 59 90 2.0 4.0 0.00 0.00 0.00 84
20240525052559 59 90 2.0 4.0 0.00 0.00 0.00 84
20240525052504 60 90 3.0 4.0 0.00 0.00 0.00 84
20240525052410 60 68 3.0 4.0 0.00 0.00 0.00 84
20240525052315 60 68 3.0 4.0 0.00 0.00 0.00 46
20240525052030 60 45 3.0 4.0 0.00 0.00 0.00 84
20240525051936 60 45 3.0 4.0 0.00 0.00 0.00 84
20240525051841 60 113 3.0 4.0 0.00 0.00 0.00 84
20240525051746 60 113 3.0 4.0 0.00 0.00 0.00 83
20240525051652 60 113 3.0 4.0 0.00 0.00 0.00 83
20240525051557 60 113 3.0 4.0 0.00 0.00 0.00 83
20240525051502 60 315 3.0 4.0 0.00 0.00 0.00 83
20240525051407 60 315 3.0 4.0 0.00 0.00 0.00 83
20240525051312 60 135 3.0 4.0 0.00 0.00 0.00 83
20240525051218 60 135 3.0 4.0 0.00 0.00 0.00 83
20240525051123 60 135 3.0 4.0 0.00 0.00 0.00 83
20240525051028 60 135 3.0 4.0 0.00 0.00 0.00 83
20240525050933 60 113 3.0 4.0 0.00 0.00 0.00 83
20240525050838 60 113 3.0 4.0 0.00 0.00 0.00 83
20240525050744 60 113 3.0 4.0 0.00 0.00 0.00 83
20240525050649 60 113 3.0 4.0 0.00 0.00 0.00 82
20240525050554 60 113 3.0 4.0 0.00 0.00 0.00 82
20240525050500 60 113 3.0 4.0 0.00 0.00 0.00 82
20240525050405 60 135 3.0 4.0 0.00 0.00 0.00 82
20240525050310 60 135 3.0 4.0 0.00 0.00 0.00 82
20240525050121 60 113 3.0 4.0 0.00 0.00 0.00 82
20240525050026 60 90 3.0 4.0 0.00 0.00 0.00 82
20240525045931 60 90 3.0 4.0 0.00 0.00 0.00 82
20240525045836 60 113 3.0 4.0 0.00 0.00 0.00 82
20240525045742 60 113 2.0 4.0 0.00 0.00 0.00 82
20240525045647 60 113 2.0 4.0 0.00 0.00 0.00 82
20240525045552 60 113 2.0 4.0 0.00 0.00 0.00 81
20240525045457 60 113 2.0 4.0 0.00 0.00 0.00 81
20240525045308 60 113 2.0 3.0 0.00 0.00 0.00 81
20240525045213 60 113 2.0 3.0 0.00 0.00 0.00 81
20240525045118 60 158 2.0 3.0 0.00 0.00 0.00 81
20240525045024 60 158 2.0 3.0 0.00 0.00 0.00 81
20240525044929 60 158 2.0 3.0 0.00 0.00 0.00 81
20240525044834 60 158 2.0 6.0 0.00 0.00 0.00 81
20240525044740 60 68 2.0 6.0 0.00 0.00 0.00 81
20240525044645 60 68 3.0 6.0 0.00 0.00 0.00 81
20240525044550 60 68 3.0 6.0 0.00 0.00 0.00 81
20240525044455 61 68 3.0 6.0 0.00 0.00 0.00 80
20240525044400 61 45 3.0 6.0 0.00 0.00 0.00 80
20240525044305 61 45 3.0 6.0 0.00 0.00 0.00 80
20240525044211 61 90 3.0 6.0 0.00 0.00 0.00 80
20240525044116 61 90 3.0 6.0 0.00 0.00 0.00 80
20240525044021 61 68 3.0 6.0 0.00 0.00 0.00 80
20240525043927 61 68 3.0 6.0 0.00 0.00 0.00 80
20240525043832 61 90 3.0 6.0 0.00 0.00 0.00 80
20240525043737 60 90 3.0 6.0 0.00 0.00 0.00 80
20240525043642 60 113 3.0 6.0 0.00 0.00 0.00 80
20240525043548 60 113 3.0 6.0 0.00 0.00 0.00 80
20240525043453 60 90 3.0 6.0 0.00 0.00 0.00 80
20240525043358 60 90 3.0 6.0 0.00 0.00 0.00 80
20240525043304 60 113 3.0 5.0 0.00 0.00 0.00 80
20240525043209 60 113 2.0 5.0 0.00 0.00 0.00 80
20240525043114 60 113 2.0 4.0 0.00 0.00 0.00 80
20240525043019 60 113 2.0 4.0 0.00 0.00 0.00 80
20240525042924 60 158 2.0 4.0 0.00 0.00 0.00 80
20240525042829 60 158 2.0 4.0 0.00 0.00 0.00 80
20240525042735 60 113 2.0 4.0 0.00 0.00 0.00 80
20240525042545 60 113 2.0 4.0 0.00 0.00 0.00 80
20240525042451 60 113 2.0 4.0 0.00 0.00 0.00 80
20240525042356 60 90 2.0 4.0 0.00 0.00 0.00 80
20240525042301 60 90 2.0 4.0 0.00 0.00 0.00 80
20240525042206 60 158 2.0 4.0 0.00 0.00 0.00 80
20240525042111 60 158 2.0 4.0 0.00 0.00 0.00 80
20240525042017 60 113 1.0 4.0 0.00 0.00 0.00 80
20240525041922 60 113 1.0 4.0 0.00 0.00 0.00 80
20240525041827 60 113 1.0 4.0 0.00 0.00 0.00 80
20240525041732 60 113 1.0 2.0 0.00 0.00 0.00 80
20240525041637 60 158 1.0 2.0 0.00 0.00 0.00 80
20240525041543 60 158 1.0 2.0 0.00 0.00 0.00 80
20240525041448 60 135 1.0 2.0 0.00 0.00 0.00 80
20240525041353 60 135 1.0 2.0 0.00 0.00 0.00 80
20240525041259 60 135 1.0 2.0 0.00 0.00 0.00 80
20240525041204 60 135 1.0 2.0 0.00 0.00 0.00 80
20240525041109 60 90 1.0 2.0 0.00 0.00 0.00 80
20240525041014 60 90 1.0 2.0 0.00 0.00 0.00 80
20240525040920 60 113 1.0 2.0 0.00 0.00 0.00 80
20240525040825 60 113 1.0 2.0 0.00 0.00 0.00 80
20240525040730 60 113 1.0 2.0 0.00 0.00 0.00 80
20240525040636 60 113 0.0 2.0 0.00 0.00 0.00 80
20240525040541 60 113 0.0 2.0 0.00 0.00 0.00 80
20240525040446 60 113 0.0 2.0 0.00 0.00 0.00 80
20240525040351 60 113 0.0 2.0 0.00 0.00 0.00 80
20240525040256 60 113 0.0 2.0 0.00 0.00 0.00 80
20240525040202 60 180 0.0 2.0 0.00 0.00 0.00 80
20240525040107 60 180 0.0 2.0 0.00 0.00 0.00 80
20240525040012 60 90 0.0 2.0 0.00 0.00 0.00 80
20240525035917 60 90 0.0 2.0 0.00 0.00 0.00 80
20240525035823 60 113 0.0 2.0 0.00 0.00 0.00 80
20240525035728 61 113 0.0 0.0 0.00 0.00 0.00 79
20240525035633 61 158 0.0 0.0 0.00 0.00 0.00 79
20240525035539 61 158 0.0 0.0 0.00 0.00 0.00 79
20240525035444 61 113 0.0 0.0 0.00 0.00 0.00 79
20240525035349 61 113 0.0 0.0 0.00 0.00 0.00 79
20240525035254 61 180 0.0 0.0 0.00 0.00 0.00 79
20240525035200 61 180 0.0 0.0 0.00 0.00 0.00 79
20240525035105 61 203 0.0 0.0 0.00 0.00 0.00 79
20240525035010 61 203 0.0 0.0 0.00 0.00 0.00 78
20240525034916 61 158 0.0 2.0 0.00 0.00 0.00 78
20240525034821 62 158 0.0 2.0 0.00 0.00 0.00 77
20240525034726 62 180 0.0 2.0 0.00 0.00 0.00 77
20240525034631 62 180 0.0 2.0 0.00 0.00 0.00 77
20240525034536 62 180 0.0 2.0 0.00 0.00 0.00 77
20240525034442 62 180 0.0 2.0 0.00 0.00 0.00 77
20240525034346 62 180 1.0 2.0 0.00 0.00 0.00 77
20240525034252 62 180 1.0 3.0 0.00 0.00 0.00 76
20240525034157 62 180 1.0 3.0 0.00 0.00 0.00 76
20240525034102 62 180 1.0 3.0 0.00 0.00 0.00 76
20240525034008 62 180 1.0 3.0 0.00 0.00 0.00 76
20240525033913 62 180 1.0 3.0 0.00 0.00 0.00 76
20240525033818 62 180 2.0 3.0 0.00 0.00 0.00 76
20240525033723 62 180 2.0 3.0 0.00 0.00 0.00 76
20240525033629 62 158 2.0 3.0 0.00 0.00 0.00 76
20240525033534 62 158 2.0 3.0 0.00 0.00 0.00 76
20240525033439 62 90 2.0 3.0 0.00 0.00 0.00 76
20240525033345 62 90 2.0 3.0 0.00 0.00 0.00 75
20240525033250 62 68 2.0 3.0 0.00 0.00 0.00 75
20240525033155 62 68 2.0 3.0 0.00 0.00 0.00 75
20240525033100 62 23 2.0 3.0 0.00 0.00 0.00 75
20240525033005 62 23 2.0 3.0 0.00 0.00 0.00 75
20240525032910 62 23 2.0 3.0 0.00 0.00 0.00 75
20240525032816 62 23 2.0 3.0 0.00 0.00 0.00 75
20240525032722 62 23 1.0 3.0 0.00 0.00 0.00 75
20240525032627 62 23 1.0 3.0 0.00 0.00 0.00 75
20240525032532 62 68 1.0 3.0 0.00 0.00 0.00 75
20240525032437 62 68 1.0 3.0 0.00 0.00 0.00 75
20240525032342 62 68 1.0 3.0 0.00 0.00 0.00 75
20240525032248 62 68 1.0 3.0 0.00 0.00 0.00 75
20240525032153 62 45 1.0 3.0 0.00 0.00 0.00 75
20240525032058 62 45 1.0 3.0 0.00 0.00 0.00 75
20240525032003 62 23 1.0 3.0 0.00 0.00 0.00 75
20240525031909 63 23 1.0 3.0 0.00 0.00 0.00 75
20240525031813 63 23 1.0 3.0 0.00 0.00 0.00 75
20240525031719 63 23 1.0 3.0 0.00 0.00 0.00 74
20240525031624 63 45 1.0 3.0 0.00 0.00 0.00 74
20240525031529 63 45 1.0 3.0 0.00 0.00 0.00 74
20240525031435 63 23 1.0 3.0 0.00 0.00 0.00 74
20240525031340 63 23 1.0 3.0 0.00 0.00 0.00 74
20240525031245 63 23 1.0 3.0 0.00 0.00 0.00 74
20240525031150 62 23 0.0 3.0 0.00 0.00 0.00 74
20240525031056 62 68 0.0 3.0 0.00 0.00 0.00 74
20240525031001 62 68 0.0 3.0 0.00 0.00 0.00 74
20240525030906 62 23 0.0 1.0 0.00 0.00 0.00 74
20240525030812 62 23 0.0 1.0 0.00 0.00 0.00 74
20240525030717 62 23 0.0 1.0 0.00 0.00 0.00 74
20240525030622 62 23 0.0 1.0 0.00 0.00 0.00 75
20240525030527 62 23 0.0 1.0 0.00 0.00 0.00 75
20240525030433 62 23 0.0 1.0 0.00 0.00 0.00 44
20240525030243 62 90 0.0 1.0 0.00 0.00 0.00 75
20240525030148 62 68 0.0 0.0 0.00 0.00 0.00 75
20240525030054 62 68 0.0 0.0 0.00 0.00 0.00 74
20240525025959 62 293 0.0 2.0 0.00 0.00 0.00 74
20240525025904 62 293 0.0 2.0 0.00 0.00 0.00 74
20240525025809 62 90 0.0 2.0 0.00 0.00 0.00 74
20240525025714 62 90 0.0 2.0 0.00 0.00 0.00 75
20240525025620 62 90 0.0 2.0 0.00 0.00 0.00 75
20240525025526 62 90 0.0 2.0 0.00 0.00 0.00 75
20240525025430 62 113 0.0 2.0 0.00 0.00 0.00 75
20240525025335 62 113 0.0 2.0 0.00 0.00 0.00 75
20240525025241 62 113 0.0 2.0 0.00 0.00 0.00 75
20240525025146 62 113 0.0 2.0 0.00 0.00 0.00 75
20240525025051 62 68 0.0 2.0 0.00 0.00 0.00 75
20240525024956 62 68 0.0 2.0 0.00 0.00 0.00 75
20240525024902 62 90 0.0 2.0 0.00 0.00 0.00 75
20240525024807 62 90 0.0 2.0 0.00 0.00 0.00 75
20240525024712 62 113 0.0 2.0 0.00 0.00 0.00 75
20240525024617 62 113 0.0 2.0 0.00 0.00 0.00 76
20240525024522 62 90 0.0 2.0 0.00 0.00 0.00 76
20240525024428 61 90 0.0 2.0 0.00 0.00 0.00 76
20240525024333 61 90 0.0 2.0 0.00 0.00 0.00 76
20240525024238 61 90 0.0 2.0 0.00 0.00 0.00 76
20240525024144 61 90 0.0 2.0 0.00 0.00 0.00 76
20240525024048 61 90 0.0 1.0 0.00 0.00 0.00 77
20240525023954 61 113 0.0 1.0 0.00 0.00 0.00 77
20240525023900 61 113 0.0 0.0 0.00 0.00 0.00 77
20240525023805 61 113 0.0 0.0 0.00 0.00 0.00 77
20240525023710 61 113 0.0 0.0 0.00 0.00 0.00 77
20240525023520 61 113 0.0 0.0 0.00 0.00 0.00 77
20240525023425 61 135 0.0 0.0 0.00 0.00 0.00 77
20240525023331 61 135 0.0 0.0 0.00 0.00 0.00 78
20240525023236 61 180 0.0 0.0 0.00 0.00 0.00 78
20240525023141 62 180 0.0 0.0 0.00 0.00 0.00 78
20240525023047 62 180 0.0 0.0 0.00 0.00 0.00 78
20240525022952 62 180 0.0 0.0 0.00 0.00 0.00 78
20240525022858 62 180 0.0 0.0 0.00 0.00 0.00 78
20240525022802 62 180 0.0 0.0 0.00 0.00 0.00 78
20240525022708 62 180 0.0 0.0 0.00 0.00 0.00 78
20240525022613 62 180 0.0 0.0 0.00 0.00 0.00 77
20240525022518 62 180 0.0 0.0 0.00 0.00 0.00 77
20240525022423 62 180 0.0 0.0 0.00 0.00 0.00 77
20240525022329 62 158 0.0 0.0 0.00 0.00 0.00 77
20240525022234 62 158 0.0 0.0 0.00 0.00 0.00 77
20240525022139 62 180 0.0 0.0 0.00 0.00 0.00 77
20240525022045 62 180 0.0 0.0 0.00 0.00 0.00 77
20240525021949 62 180 0.0 0.0 0.00 0.00 0.00 77
20240525021855 62 180 0.0 0.0 0.00 0.00 0.00 76
20240525021800 62 158 0.0 0.0 0.00 0.00 0.00 76
20240525021705 62 158 0.0 0.0 0.00 0.00 0.00 75
20240525021611 62 180 0.0 0.0 0.00 0.00 0.00 75
20240525021516 62 180 0.0 0.0 0.00 0.00 0.00 74
20240525021421 62 180 0.0 0.0 0.00 0.00 0.00 74
20240525021326 62 180 0.0 0.0 0.00 0.00 0.00 74
20240525021232 62 180 0.0 0.0 0.00 0.00 0.00 74
20240525021137 63 180 0.0 0.0 0.00 0.00 0.00 75
20240525021042 63 180 0.0 0.0 0.00 0.00 0.00 75
20240525020948 63 180 0.0 0.0 0.00 0.00 0.00 75
20240525020853 63 180 0.0 0.0 0.00 0.00 0.00 75
20240525020758 63 180 0.0 0.0 0.00 0.00 0.00 74
20240525020703 63 203 0.0 0.0 0.00 0.00 0.00 74
20240525020608 63 203 0.0 0.0 0.00 0.00 0.00 74
20240525020514 63 203 0.0 0.0 0.00 0.00 0.00 74
20240525020419 63 203 0.0 0.0 0.00 0.00 0.00 74
20240525020324 63 203 0.0 0.0 0.00 0.00 0.00 74
20240525020116 63 203 0.0 0.0 0.00 0.00 0.00 73
20240525020022 63 203 0.0 0.0 0.00 0.00 0.00 73
20240525015927 63 203 0.0 0.0 0.00 0.00 0.00 73
20240525015832 63 180 0.0 0.0 0.00 0.00 0.00 73
20240525015737 63 180 0.0 0.0 0.00 0.00 0.00 73
20240525015643 63 180 0.0 0.0 0.00 0.00 0.00 73
20240525015548 63 180 0.0 0.0 0.00 0.00 0.00 73
20240525015453 63 158 0.0 0.0 0.00 0.00 0.00 73
20240525015359 63 158 0.0 0.0 0.00 0.00 0.00 73
20240525015304 63 158 0.0 0.0 0.00 0.00 0.00 73
20240525015209 63 158 0.0 0.0 0.00 0.00 0.00 72
20240525015114 63 180 0.0 0.0 0.00 0.00 0.00 72
20240525015020 63 180 0.0 0.0 0.00 0.00 0.00 72
20240525014924 63 203 0.0 0.0 0.00 0.00 0.00 72
20240525014830 63 203 0.0 0.0 0.00 0.00 0.00 72
20240525014735 63 203 0.0 0.0 0.00 0.00 0.00 72
20240525014640 63 203 0.0 0.0 0.00 0.00 0.00 73
20240525014546 63 203 0.0 0.0 0.00 0.00 0.00 73
20240525014451 63 203 0.0 0.0 0.00 0.00 0.00 72
20240525014356 63 113 0.0 0.0 0.00 0.00 0.00 72
20240525014302 63 113 0.0 0.0 0.00 0.00 0.00 73
20240525014206 63 90 0.0 0.0 0.00 0.00 0.00 73
20240525014112 63 90 0.0 0.0 0.00 0.00 0.00 73
20240525014017 63 113 0.0 0.0 0.00 0.00 0.00 73
20240525013922 63 113 0.0 0.0 0.00 0.00 0.00 72
20240525013828 63 90 0.0 0.0 0.00 0.00 0.00 72
20240525013733 64 90 0.0 0.0 0.00 0.00 0.00 72
20240525013638 64 113 0.0 0.0 0.00 0.00 0.00 72
20240525013543 64 113 0.0 0.0 0.00 0.00 0.00 72
20240525013449 64 113 0.0 0.0 0.00 0.00 0.00 72
20240525013354 64 113 0.0 0.0 0.00 0.00 0.00 71
20240525013259 64 113 0.0 0.0 0.00 0.00 0.00 71
20240525013205 64 113 0.0 0.0 0.00 0.00 0.00 71
20240525013110 64 180 0.0 0.0 0.00 0.00 0.00 71
20240525013015 65 180 0.0 0.0 0.00 0.00 0.00 70
20240525012920 65 180 0.0 0.0 0.00 0.00 0.00 70
20240525012825 65 180 0.0 0.0 0.00 0.00 0.00 70
20240525012731 65 180 0.0 0.0 0.00 0.00 0.00 70
20240525012636 65 180 0.0 0.0 0.00 0.00 0.00 71
20240525012541 65 180 0.0 0.0 0.00 0.00 0.00 71
20240525012447 65 180 0.0 0.0 0.00 0.00 0.00 71
20240525012351 65 203 0.0 0.0 0.00 0.00 0.00 71
20240525012257 65 203 0.0 0.0 0.00 0.00 0.00 71
20240525012202 65 203 0.0 0.0 0.00 0.00 0.00 71
20240525012107 65 203 0.0 0.0 0.00 0.00 0.00 70
20240525012013 65 203 0.0 0.0 0.00 0.00 0.00 70
20240525011918 66 203 0.0 0.0 0.00 0.00 0.00 69
20240525011823 66 203 0.0 0.0 0.00 0.00 0.00 69
20240525011728 66 203 0.0 0.0 0.00 0.00 0.00 69
20240525011634 66 203 0.0 0.0 0.00 0.00 0.00 69
20240525011539 66 203 0.0 0.0 0.00 0.00 0.00 69
20240525011444 66 203 0.0 0.0 0.00 0.00 0.00 69
20240525011349 66 203 0.0 0.0 0.00 0.00 0.00 68
20240525011255 66 203 0.0 0.0 0.00 0.00 0.00 68
20240525011200 66 203 0.0 0.0 0.00 0.00 0.00 68
20240525011105 66 203 0.0 0.0 0.00 0.00 0.00 68
20240525011010 67 203 0.0 0.0 0.00 0.00 0.00 67
20240525010916 67 203 0.0 1.0 0.00 0.00 0.00 67
20240525010821 67 203 0.0 1.0 0.00 0.00 0.00 67
20240525010726 67 203 0.0 1.0 0.00 0.00 0.00 67
20240525010632 67 203 0.0 2.0 0.00 0.00 0.00 66
20240525010536 67 203 0.0 2.0 0.00 0.00 0.00 66
20240525010442 67 203 0.0 2.0 0.00 0.00 0.00 65
20240525010347 67 180 0.0 2.0 0.00 0.00 0.00 65
20240525010252 67 180 0.0 2.0 0.00 0.00 0.00 66
20240525010158 67 180 0.0 2.0 0.00 0.00 0.00 66
20240525010103 67 180 0.0 2.0 0.00 0.00 0.00 66
20240525010008 67 158 0.0 2.0 0.00 0.00 0.00 66
20240525005913 67 158 0.0 2.0 0.00 0.00 0.00 66
20240525005819 67 113 0.0 2.0 0.00 0.00 0.00 66
20240525005724 67 113 0.0 2.0 0.00 0.00 0.00 66
20240525005629 67 113 0.0 2.0 0.00 0.00 0.00 66
20240525005535 67 113 0.0 2.0 0.00 0.00 0.00 66
20240525005440 67 23 0.0 2.0 0.00 0.00 0.00 66
20240525005345 67 23 0.0 2.0 0.00 0.00 0.00 66
20240525005250 67 45 0.0 2.0 0.00 0.00 0.00 66
20240525005156 68 45 0.0 2.0 0.00 0.00 0.00 66
20240525005101 68 68 0.0 2.0 0.00 0.00 0.00 66
20240525005006 68 68 0.0 2.0 0.00 0.00 0.00 65
20240525004911 68 90 0.0 2.0 0.00 0.00 0.00 65
20240525004817 68 90 1.0 3.0 0.00 0.00 0.00 64
20240525004722 68 90 1.0 3.0 0.00 0.00 0.00 64
20240525004627 69 90 1.0 3.0 0.00 0.00 0.00 64
20240525004532 69 113 1.0 3.0 0.00 0.00 0.00 64
20240525004438 69 113 1.0 3.0 0.00 0.00 0.00 63
20240525004343 69 113 1.0 3.0 0.00 0.00 0.00 63
20240525004248 69 113 1.0 3.0 0.00 0.00 0.00 63
20240525004153 69 135 1.0 3.0 0.00 0.00 0.00 63
20240525004059 69 135 2.0 3.0 0.00 0.00 0.00 62
20240525004004 69 113 2.0 3.0 0.00 0.00 0.00 62
20240525003909 69 113 2.0 3.0 0.00 0.00 0.00 61
20240525003814 69 293 2.0 4.0 0.00 0.00 0.00 61
20240525003719 69 293 2.0 4.0 0.00 0.00 0.00 61
20240525003625 69 293 2.0 4.0 0.00 0.00 0.00 61
20240525003530 69 293 2.0 4.0 0.00 0.00 0.00 61
20240525003435 69 293 3.0 4.0 0.00 0.00 0.00 61
20240525003340 70 293 3.0 4.0 0.00 0.00 0.00 60
20240525003246 70 23 3.0 5.0 0.00 0.00 0.00 60
20240525003151 70 23 3.0 5.0 0.00 0.00 0.00 60
20240525003056 70 23 3.0 7.0 0.00 0.00 0.00 60
20240525003001 70 23 3.0 7.0 0.00 0.00 0.00 60
20240525002907 70 338 3.0 7.0 0.00 0.00 0.00 60
20240525002812 70 338 4.0 7.0 0.00 0.00 0.00 60
20240525002622 70 0 4.0 7.0 0.00 0.00 0.00 60
20240525002527 70 315 3.0 7.0 0.00 0.00 0.00 60
20240525002433 70 315 3.0 7.0 0.00 0.00 0.00 60
20240525002338 70 315 3.0 7.0 0.00 0.00 0.00 60
20240525002244 70 315 3.0 7.0 0.00 0.00 0.00 59
20240525002149 70 293 3.0 7.0 0.00 0.00 0.00 59
20240525002054 70 293 3.0 7.0 0.00 0.00 0.00 59
20240525001959 70 270 3.0 7.0 0.00 0.00 0.00 59
20240525001905 71 270 3.0 7.0 0.00 0.00 0.00 59
20240525001809 71 270 3.0 7.0 0.00 0.00 0.00 59
20240525001715 71 270 3.0 7.0 0.00 0.00 0.00 58
20240525001620 71 293 3.0 7.0 0.00 0.00 0.00 58
20240525001525 71 293 3.0 7.0 0.00 0.00 0.00 58
20240525001431 71 338 3.0 7.0 0.00 0.00 0.00 58
20240525001336 72 338 3.0 7.0 0.00 0.00 0.00 58
20240525001241 72 315 3.0 7.0 0.00 0.00 0.00 58
20240525001146 72 315 3.0 7.0 0.00 0.00 0.00 57
20240525001051 72 315 3.0 7.0 0.00 0.00 0.00 57
20240525000957 72 315 3.0 7.0 0.00 0.00 0.00 56
20240525000902 72 23 4.0 7.0 0.00 0.00 0.00 56
20240525000807 72 23 4.0 7.0 0.00 0.00 0.00 56
20240525000712 72 315 4.0 7.0 0.00 0.00 0.00 56
20240525000618 72 315 4.0 7.0 0.00 0.00 0.00 56
20240525000523 72 0 4.0 7.0 0.00 0.00 0.00 56
20240525000428 72 0 5.0 7.0 0.00 0.00 0.00 56
20240525000333 72 315 5.0 7.0 0.00 0.00 0.00 56
20240525000238 72 315 6.0 7.0 0.00 0.00 0.00 55
20240525000144 72 315 6.0 7.0 0.00 0.00 0.00 55
20240525000049 0 315 7.0 7.0 0.00 0.00 0.00
20240524235859 73 315 4.0 7.0 0.00 0.00 0.00 55
20240524235805 73 23 5.0 10.0 0.00 0.00 0.00 55
20240524235710 73 23 5.0 10.0 0.00 0.00 0.00 55
20240524235615 73 338 5.0 10.0 0.00 0.00 0.00 55
20240524235521 73 338 5.0 10.0 0.00 0.00 0.00 55
20240524235426 73 0 5.0 10.0 0.00 0.00 0.00 55
20240524235331 73 0 5.0 10.0 0.00 0.00 0.00 55
20240524235236 73 293 5.0 10.0 0.00 0.00 0.00 55
20240524235142 73 293 5.0 10.0 0.00 0.00 0.00 55
20240524235047 73 315 5.0 10.0 0.00 0.00 0.00 55
20240524234952 73 315 5.0 10.0 0.00 0.00 0.00 55
20240524234858 73 338 5.0 10.0 0.00 0.00 0.00 55
20240524234802 73 338 5.0 10.0 0.00 0.00 0.00 55
20240524234708 73 315 5.0 10.0 0.00 0.00 0.00 55
20240524234613 73 315 5.0 10.0 0.00 0.00 0.00 55
20240524234518 73 293 5.0 10.0 0.00 0.00 0.00 55
20240524234424 73 293 5.0 10.0 0.00 0.00 0.00 54
20240524234329 73 293 5.0 10.0 0.00 0.00 0.00 54
20240524234234 74 293 5.0 8.0 0.00 0.00 0.00 54
20240524234139 74 293 5.0 8.0 0.00 0.00 0.00 54
20240524234044 74 293 5.0 8.0 0.00 0.00 0.00 54
20240524233950 74 293 5.0 9.0 0.00 0.00 0.00 54
20240524233855 74 293 5.0 9.0 0.00 0.00 0.00 54
20240524233800 74 293 5.0 9.0 0.00 0.00 0.00 54
20240524233706 74 293 5.0 9.0 0.00 0.00 0.00 54
20240524233611 74 315 6.0 9.0 0.00 0.00 0.00 54
20240524233516 74 315 6.0 9.0 0.00 0.00 0.00 55
20240524233421 74 293 6.0 9.0 0.00 0.00 0.00 55
20240524233326 73 293 6.0 9.0 0.00 0.00 0.00 55
20240524233137 73 293 6.0 9.0 0.00 0.00 0.00 55
20240524233042 73 338 6.0 9.0 0.00 0.00 0.00 55
20240524232947 73 338 6.0 9.0 0.00 0.00 0.00 55
20240524232852 73 270 6.0 9.0 0.00 0.00 0.00 55
20240524232757 73 270 6.0 9.0 0.00 0.00 0.00 55
20240524232703 73 338 6.0 9.0 0.00 0.00 0.00 55
20240524232608 73 338 6.0 9.0 0.00 0.00 0.00 55
20240524232513 73 315 6.0 9.0 0.00 0.00 0.00 55
20240524232419 73 315 6.0 9.0 0.00 0.00 0.00 55
20240524232324 73 0 6.0 9.0 0.00 0.00 0.00 55
20240524232229 73 0 6.0 9.0 0.00 0.00 0.00 55
20240524232135 73 315 6.0 9.0 0.00 0.00 0.00 55
20240524232039 74 315 6.0 7.0 0.00 0.00 0.00 55
20240524231945 74 315 6.0 8.0 0.00 0.00 0.00 55
20240524231850 74 315 6.0 8.0 0.00 0.00 0.00 54
20240524231755 74 0 6.0 8.0 0.00 0.00 0.00 54
20240524231701 75 0 6.0 8.0 0.00 0.00 0.00 54
20240524231606 75 315 6.0 8.0 0.00 0.00 0.00 54
20240524231511 75 315 6.0 8.0 0.00 0.00 0.00 54
20240524231416 75 23 6.0 8.0 0.00 0.00 0.00 54
20240524231322 75 23 6.0 10.0 0.00 0.00 0.00 54
20240524231227 75 293 6.0 10.0 0.00 0.00 0.00 54
20240524231132 75 293 6.0 10.0 0.00 0.00 0.00 54
20240524231037 75 315 6.0 10.0 0.00 0.00 0.00 54
20240524230942 75 315 6.0 10.0 0.00 0.00 0.00 54
20240524230848 75 270 6.0 10.0 0.00 0.00 0.00 54
20240524230753 75 270 7.0 10.0 0.00 0.00 0.00 53
20240524230658 75 315 7.0 10.0 0.00 0.00 0.00 53
20240524230603 75 315 7.0 10.0 0.00 0.00 0.00 53
20240524230414 75 338 7.0 10.0 0.00 0.00 0.00 53
20240524230319 75 293 7.0 10.0 0.00 0.00 0.00 53
20240524230224 74 293 7.0 10.0 0.00 0.00 0.00 54
20240524230054 74 315 7.0 10.0 0.00 0.00 0.00 54
20240524225958 74 315 7.0 10.0 0.00 0.00 0.00 54
20240524225904 74 315 7.0 10.0 0.00 0.00 0.00 54
20240524225809 74 315 7.0 10.0 0.00 0.00 0.00 54
20240524225714 74 293 7.0 10.0 0.00 0.00 0.00 54
20240524225524 74 293 6.0 9.0 0.00 0.00 0.00 54
20240524225430 75 293 6.0 9.0 0.00 0.00 0.00 54
20240524225335 75 338 6.0 10.0 0.00 0.00 0.00 54
20240524225240 75 338 6.0 10.0 0.00 0.00 0.00 53
20240524225145 75 315 6.0 10.0 0.00 0.00 0.00 53
20240524225050 75 315 6.0 10.0 0.00 0.00 0.00 54
20240524224956 75 0 6.0 10.0 0.00 0.00 0.00 54
20240524224901 75 0 6.0 10.0 0.00 0.00 0.00 55
20240524224806 75 203 6.0 10.0 0.00 0.00 0.00 55
20240524224711 74 203 6.0 10.0 0.00 0.00 0.00 55
20240524224617 74 0 6.0 10.0 0.00 0.00 0.00 55
20240524224522 74 0 6.0 11.0 0.00 0.00 0.00 55
20240524224427 74 293 6.0 11.0 0.00 0.00 0.00 55
20240524224333 74 293 7.0 11.0 0.00 0.00 0.00 55
20240524224238 74 293 6.0 11.0 0.00 0.00 0.00 55
20240524224143 74 293 6.0 11.0 0.00 0.00 0.00 55
20240524224048 74 0 6.0 11.0 0.00 0.00 0.00 55
20240524223953 74 0 6.0 11.0 0.00 0.00 0.00 55
20240524223859 74 270 7.0 11.0 0.00 0.00 0.00 55
20240524223804 75 270 6.0 11.0 0.00 0.00 0.00 54
20240524223709 75 225 7.0 11.0 0.00 0.00 0.00 54
20240524223615 74 225 7.0 11.0 0.00 0.00 0.00 54
20240524223520 74 315 6.0 11.0 0.00 0.00 0.00 54
20240524223425 74 315 6.0 11.0 0.00 0.00 0.00 54
20240524223330 74 315 6.0 11.0 0.00 0.00 0.00 54
20240524223236 74 315 6.0 11.0 0.00 0.00 0.00 54
20240524223141 74 293 6.0 11.0 0.00 0.00 0.00 54
20240524223046 76 293 6.0 11.0 0.00 0.00 0.00 54
20240524222951 76 135 5.0 9.0 0.00 0.00 0.00 54
20240524222857 76 135 5.0 9.0 0.00 0.00 0.00 53
20240524222802 76 293 6.0 9.0 0.00 0.00 0.00 53
20240524222707 76 293 6.0 9.0 0.00 0.00 0.00 52
20240524222612 76 270 5.0 9.0 0.00 0.00 0.00 52
20240524222518 77 270 6.0 9.0 0.00 0.00 0.00 52
20240524222423 77 315 6.0 9.0 0.00 0.00 0.00 52
20240524222328 77 315 6.0 9.0 0.00 0.00 0.00 52
20240524222233 77 270 5.0 9.0 0.00 0.00 0.00 52
20240524222138 77 270 5.0 9.0 0.00 0.00 0.00 52
20240524222044 77 270 5.0 9.0 0.00 0.00 0.00 52
20240524221949 76 270 6.0 9.0 0.00 0.00 0.00 52
20240524221854 76 338 6.0 9.0 0.00 0.00 0.00 52
20240524221800 76 338 6.0 9.0 0.00 0.00 0.00 52
20240524221704 76 248 6.0 9.0 0.00 0.00 0.00 52
20240524221610 75 248 6.0 9.0 0.00 0.00 0.00 52
20240524221515 75 293 6.0 9.0 0.00 0.00 0.00 52
20240524221421 75 293 6.0 9.0 0.00 0.00 0.00 52
20240524221326 75 270 5.0 9.0 0.00 0.00 0.00 52
20240524221231 75 270 5.0 9.0 0.00 0.00 0.00 51
20240524221136 75 225 5.0 9.0 0.00 0.00 0.00 51
20240524221041 75 225 5.0 9.0 0.00 0.00 0.00 51
20240524220947 75 315 5.0 8.0 0.00 0.00 0.00 51
20240524220852 76 315 5.0 8.0 0.00 0.00 0.00 51
20240524220757 76 270 5.0 8.0 0.00 0.00 0.00 51
20240524220703 76 270 5.0 8.0 0.00 0.00 0.00 52
20240524220608 76 270 5.0 8.0 0.00 0.00 0.00 52
20240524220513 76 270 5.0 8.0 0.00 0.00 0.00 52
20240524220418 76 270 5.0 8.0 0.00 0.00 0.00 52
20240524220324 76 270 5.0 8.0 0.00 0.00 0.00 52
20240524220229 76 270 5.0 8.0 0.00 0.00 0.00 52
20240524220137 76 270 5.0 9.0 0.00 0.00 0.00 52
20240524215944 76 270 5.0 9.0 0.00 0.00 0.00 52
20240524215850 76 270 5.0 9.0 0.00 0.00 0.00 52
20240524215755 76 270 5.0 9.0 0.00 0.00 0.00 52
20240524215700 76 270 6.0 9.0 0.00 0.00 0.00 52
20240524215606 75 270 6.0 9.0 0.00 0.00 0.00 52
20240524215511 75 270 6.0 9.0 0.00 0.00 0.00 52
20240524215416 76 270 6.0 9.0 0.00 0.00 0.00 51
20240524215321 76 23 6.0 9.0 0.00 0.00 0.00 51
20240524215227 76 23 6.0 9.0 0.00 0.00 0.00 51
20240524215132 76 338 6.0 9.0 0.00 0.00 0.00 51
20240524215037 76 338 6.0 9.0 0.00 0.00 0.00 51
20240524214942 76 270 6.0 9.0 0.00 0.00 0.00 51
20240524214847 76 270 6.0 9.0 0.00 0.00 0.00 51
20240524214753 76 338 6.0 9.0 0.00 0.00 0.00 51
20240524214658 76 338 6.0 9.0 0.00 0.00 0.00 51
20240524214603 76 270 7.0 9.0 0.00 0.00 0.00 51
20240524214509 76 270 7.0 11.0 0.00 0.00 0.00 51
20240524214414 76 270 7.0 11.0 0.00 0.00 0.00 51
20240524214319 76 293 7.0 11.0 0.00 0.00 0.00 51
20240524214224 76 293 7.0 11.0 0.00 0.00 0.00 51
20240524214130 76 338 6.0 11.0 0.00 0.00 0.00 51
20240524214035 76 338 6.0 11.0 0.00 0.00 0.00 51
20240524213940 76 225 6.0 11.0 0.00 0.00 0.00 51
20240524213845 76 225 7.0 12.0 0.00 0.00 0.00 51
20240524213750 76 225 7.0 12.0 0.00 0.00 0.00 51
20240524213655 76 225 7.0 13.0 0.00 0.00 0.00 51
20240524213601 76 338 7.0 13.0 0.00 0.00 0.00 51
20240524213506 76 338 7.0 13.0 0.00 0.00 0.00 50
20240524213222 76 270 7.0 13.0 0.00 0.00 0.00 50
20240524213127 76 270 7.0 13.0 0.00 0.00 0.00 50
20240524213032 76 315 7.0 13.0 0.00 0.00 0.00 50
20240524212937 76 315 7.0 13.0 0.00 0.00 0.00 50
20240524212842 76 225 7.0 13.0 0.00 0.00 0.00 50
20240524212748 77 225 7.0 13.0 0.00 0.00 0.00 50
20240524212653 77 225 7.0 13.0 0.00 0.00 0.00 50
20240524212558 76 225 7.0 13.0 0.00 0.00 0.00 51
20240524212503 76 315 7.0 13.0 0.00 0.00 0.00 51
20240524212408 76 315 7.0 13.0 0.00 0.00 0.00 51
20240524212314 76 270 7.0 13.0 0.00 0.00 0.00 51
20240524212219 77 270 7.0 13.0 0.00 0.00 0.00 50
20240524212124 77 315 7.0 13.0 0.00 0.00 0.00 50
20240524212030 77 315 6.0 11.0 0.00 0.00 0.00 50
20240524211935 77 270 6.0 11.0 0.00 0.00 0.00 50
20240524211840 77 270 6.0 13.0 0.00 0.00 0.00 50
20240524211745 77 270 7.0 13.0 0.00 0.00 0.00 50
20240524211651 77 270 7.0 13.0 0.00 0.00 0.00 50
20240524211556 77 248 7.0 13.0 0.00 0.00 0.00 50
20240524211501 77 248 7.0 13.0 0.00 0.00 0.00 50
20240524211406 77 338 7.0 13.0 0.00 0.00 0.00 50
20240524211312 77 338 7.0 13.0 0.00 0.00 0.00 50
20240524211217 77 315 7.0 13.0 0.00 0.00 0.00 50
20240524211122 76 315 7.0 13.0 0.00 0.00 0.00 50
20240524211027 76 293 7.0 13.0 0.00 0.00 0.00 50
20240524210932 77 293 7.0 13.0 0.00 0.00 0.00 49
20240524210838 77 293 7.0 13.0 0.00 0.00 0.00 49
20240524210743 77 293 7.0 13.0 0.00 0.00 0.00 51
20240524210648 77 225 7.0 13.0 0.00 0.00 0.00 51
20240524210459 76 225 7.0 13.0 0.00 0.00 0.00 50
20240524210404 76 225 7.0 13.0 0.00 0.00 0.00 50
20240524210309 76 270 7.0 13.0 0.00 0.00 0.00 50
20240524210214 77 270 6.0 10.0 0.00 0.00 0.00 50
20240524210119 77 270 6.0 10.0 0.00 0.00 0.00 50
20240524210025 77 270 7.0 10.0 0.00 0.00 0.00 50
20240524205930 77 293 7.0 10.0 0.00 0.00 0.00 50
20240524205835 77 293 7.0 10.0 0.00 0.00 0.00 50
20240524205740 77 315 7.0 10.0 0.00 0.00 0.00 50
20240524205646 77 315 7.0 10.0 0.00 0.00 0.00 51
20240524205551 77 248 7.0 10.0 0.00 0.00 0.00 51
20240524205456 76 248 7.0 10.0 0.00 0.00 0.00 51
20240524205401 76 180 7.0 10.0 0.00 0.00 0.00 51
20240524205212 77 180 7.0 10.0 0.00 0.00 0.00 52
20240524205116 76 180 7.0 10.0 0.00 0.00 0.00 51
20240524205022 76 203 7.0 10.0 0.00 0.00 0.00 51
20240524204927 76 203 7.0 10.0 0.00 0.00 0.00 51
20240524204832 76 338 7.0 10.0 0.00 0.00 0.00 51
20240524204738 76 338 7.0 10.0 0.00 0.00 0.00 51
20240524204643 76 293 7.0 10.0 0.00 0.00 0.00 51
20240524204548 77 293 7.0 10.0 0.00 0.00 0.00 51
20240524204453 77 248 6.0 10.0 0.00 0.00 0.00 51
20240524204358 77 248 6.0 10.0 0.00 0.00 0.00 50
20240524204304 77 270 6.0 10.0 0.00 0.00 0.00 50
20240524204209 77 270 6.0 10.0 0.00 0.00 0.00 50
20240524204114 77 270 6.0 10.0 0.00 0.00 0.00 50
20240524204020 77 270 6.0 10.0 0.00 0.00 0.00 51
20240524203925 77 270 5.0 7.0 0.00 0.00 0.00 51
20240524203830 77 270 5.0 7.0 0.00 0.00 0.00 50
20240524203735 77 270 5.0 7.0 0.00 0.00 0.00 50
20240524203640 77 270 5.0 7.0 0.00 0.00 0.00 50
20240524203546 77 270 5.0 7.0 0.00 0.00 0.00 50
20240524203451 78 270 5.0 7.0 0.00 0.00 0.00 50
20240524203356 78 338 5.0 7.0 0.00 0.00 0.00 50
20240524203302 78 338 5.0 7.0 0.00 0.00 0.00 50
20240524203207 78 293 5.0 7.0 0.00 0.00 0.00 50
20240524203112 78 293 5.0 10.0 0.00 0.00 0.00 50
20240524203017 78 23 5.0 10.0 0.00 0.00 0.00 50
20240524202923 77 23 5.0 10.0 0.00 0.00 0.00 50
20240524202827 77 315 5.0 10.0 0.00 0.00 0.00 50
20240524202733 77 315 6.0 10.0 0.00 0.00 0.00 50
20240524202638 77 225 6.0 10.0 0.00 0.00 0.00 50
20240524202543 77 225 6.0 10.0 0.00 0.00 0.00 51
20240524202448 77 225 6.0 10.0 0.00 0.00 0.00 51
20240524202353 77 248 6.0 10.0 0.00 0.00 0.00 51
20240524202259 77 248 6.0 10.0 0.00 0.00 0.00 52
20240524202204 77 270 6.0 10.0 0.00 0.00 0.00 52
20240524202109 77 270 6.0 10.0 0.00 0.00 0.00 51
20240524202014 77 248 6.0 10.0 0.00 0.00 0.00 51
20240524201920 77 248 6.0 10.0 0.00 0.00 0.00 50
20240524201825 77 270 6.0 10.0 0.00 0.00 0.00 50
20240524201730 77 270 6.0 10.0 0.00 0.00 0.00 50
20240524201635 77 270 6.0 10.0 0.00 0.00 0.00 50
20240524201540 77 270 6.0 10.0 0.00 0.00 0.00 50
20240524201446 77 248 6.0 10.0 0.00 0.00 0.00 50
20240524201351 77 248 6.0 10.0 0.00 0.00 0.00 49
20240524201256 77 270 6.0 10.0 0.00 0.00 0.00 49
20240524201201 77 270 6.0 10.0 0.00 0.00 0.00 50
20240524201107 77 225 6.0 10.0 0.00 0.00 0.00 50
20240524201012 77 225 6.0 10.0 0.00 0.00 0.00 50
20240524200917 77 270 6.0 10.0 0.00 0.00 0.00 50
20240524200822 77 270 6.0 10.0 0.00 0.00 0.00 50
20240524200728 77 293 6.0 10.0 0.00 0.00 0.00 50
20240524200633 77 293 6.0 10.0 0.00 0.00 0.00 50
20240524200538 77 315 6.0 10.0 0.00 0.00 0.00 50
20240524200443 77 315 6.0 10.0 0.00 0.00 0.00 51
20240524200348 77 180 6.0 10.0 0.00 0.00 0.00 51
20240524200254 77 180 6.0 10.0 0.00 0.00 0.00 49
20240524200105 77 270 6.0 10.0 0.00 0.00 0.00 49
20240524200012 77 248 6.0 10.0 0.00 0.00 0.00 49
20240524195915 77 248 6.0 10.0 0.00 0.00 0.00 50
20240524195820 77 270 6.0 10.0 0.00 0.00 0.00 50
20240524195725 77 270 6.0 10.0 0.00 0.00 0.00 48
20240524195630 77 293 7.0 10.0 0.00 0.00 0.00 48
20240524195536 77 293 7.0 13.0 0.00 0.00 0.00 49
20240524195441 77 270 7.0 13.0 0.00 0.00 0.00 49
20240524195347 77 270 7.0 13.0 0.00 0.00 0.00 50
20240524195251 77 248 7.0 13.0 0.00 0.00 0.00 50
20240524195157 77 248 7.0 13.0 0.00 0.00 0.00 49
20240524195102 77 270 7.0 13.0 0.00 0.00 0.00 49
20240524195007 78 270 7.0 13.0 0.00 0.00 0.00 49
20240524194913 78 338 7.0 13.0 0.00 0.00 0.00 49
20240524194818 78 338 7.0 13.0 0.00 0.00 0.00 49
20240524194723 78 338 6.0 13.0 0.00 0.00 0.00 49
20240524194628 78 338 6.0 13.0 0.00 0.00 0.00 49
20240524194534 78 293 6.0 13.0 0.00 0.00 0.00 49
20240524194438 78 293 6.0 13.0 0.00 0.00 0.00 48
20240524194344 78 270 6.0 13.0 0.00 0.00 0.00 48
20240524194249 78 270 6.0 13.0 0.00 0.00 0.00 48
20240524194154 78 270 6.0 13.0 0.00 0.00 0.00 48
20240524194059 78 270 6.0 13.0 0.00 0.00 0.00 49
20240524194004 78 23 6.0 11.0 0.00 0.00 0.00 49
20240524193910 77 23 6.0 11.0 0.00 0.00 0.00 50
20240524193815 77 158 6.0 11.0 0.00 0.00 0.00 50
20240524193720 78 158 6.0 11.0 0.00 0.00 0.00 49
20240524193626 78 203 6.0 11.0 0.00 0.00 0.00 49
20240524193531 78 203 6.0 11.0 0.00 0.00 0.00 48
20240524193436 78 315 6.0 11.0 0.00 0.00 0.00 48
20240524193342 78 315 6.0 11.0 0.00 0.00 0.00 48
20240524193247 78 23 6.0 11.0 0.00 0.00 0.00 48
20240524193152 78 23 6.0 11.0 0.00 0.00 0.00 48
20240524193057 78 270 6.0 11.0 0.00 0.00 0.00 48
20240524193002 78 270 6.0 8.0 0.00 0.00 0.00 48
20240524192907 78 248 6.0 8.0 0.00 0.00 0.00 48
20240524192818 78 248 6.0 8.0 0.00 0.00 0.00 48
20240524192510 78 315 6.0 8.0 0.00 0.00 0.00 48
20240524192321 78 315 6.0 8.0 0.00 0.00 0.00 48
20240524192226 78 203 6.0 8.0 0.00 0.00 0.00 48
20240524192131 79 203 6.0 8.0 0.00 0.00 0.00 49
20240524192036 79 293 6.0 8.0 0.00 0.00 0.00 49
20240524191941 79 293 6.0 8.0 0.00 0.00 0.00 48
20240524191847 79 23 6.0 11.0 0.00 0.00 0.00 48
20240524191752 79 23 6.0 11.0 0.00 0.00 0.00 48
20240524191657 79 293 6.0 11.0 0.00 0.00 0.00 48
20240524191602 79 293 6.0 11.0 0.00 0.00 0.00 49
20240524191508 79 338 6.0 11.0 0.00 0.00 0.00 49
20240524191413 78 338 6.0 11.0 0.00 0.00 0.00 49
20240524191318 78 270 7.0 11.0 0.00 0.00 0.00 49
20240524191223 77 270 7.0 11.0 0.00 0.00 0.00 48
20240524191034 77 270 7.0 11.0 0.00 0.00 0.00 48
20240524190939 77 270 7.0 11.0 0.00 0.00 0.00 50
20240524190844 77 0 7.0 11.0 0.00 0.00 0.00 50
20240524190749 77 0 7.0 11.0 0.00 0.00 0.00 50
20240524190654 77 0 7.0 11.0 0.00 0.00 0.00 50
20240524190600 77 270 7.0 11.0 0.00 0.00 0.00 50
20240524190506 77 270 7.0 11.0 0.00 0.00 0.00 50
20240524190411 77 225 7.0 11.0 0.00 0.00 0.00 50
20240524190316 77 225 7.0 12.0 0.00 0.00 0.00 50
20240524190221 77 270 7.0 12.0 0.00 0.00 0.00 50
20240524190126 77 270 7.0 12.0 0.00 0.00 0.00 50
20240524190031 77 248 7.0 12.0 0.00 0.00 0.00 50
20240524185937 77 248 7.0 12.0 0.00 0.00 0.00 50
20240524185747 77 270 7.0 12.0 0.00 0.00 0.00 50
20240524185653 77 225 7.0 12.0 0.00 0.00 0.00 50
20240524185557 77 225 7.0 12.0 0.00 0.00 0.00 50
20240524185503 77 270 7.0 12.0 0.00 0.00 0.00 50
20240524185408 77 270 7.0 12.0 0.00 0.00 0.00 49
20240524185313 77 225 8.0 12.0 0.00 0.00 0.00 49
20240524185255 77 225 7.0 12.0 0.00 0.00 0.00 49
20240524185201 77 203 7.0 12.0 0.00 0.00 0.00 49
20240524185106 78 203 7.0 12.0 0.00 0.00 0.00 49
20240524185010 78 203 7.0 12.0 0.00 0.00 0.00 49
20240524184916 78 203 7.0 12.0 0.00 0.00 0.00 49
20240524184821 78 270 7.0 12.0 0.00 0.00 0.00 49
20240524184727 78 270 6.0 12.0 0.00 0.00 0.00 50
20240524184631 78 315 6.0 12.0 0.00 0.00 0.00 50
20240524184537 78 315 7.0 12.0 0.00 0.00 0.00 50
20240524184441 78 225 7.0 12.0 0.00 0.00 0.00 50
20240524184347 78 225 7.0 12.0 0.00 0.00 0.00 49
20240524184252 78 293 7.0 12.0 0.00 0.00 0.00 49
20240524184157 77 293 7.0 12.0 0.00 0.00 0.00 51
20240524184008 77 293 7.0 12.0 0.00 0.00 0.00 51
20240524183913 77 293 6.0 10.0 0.00 0.00 0.00 51
20240524183818 77 203 6.0 10.0 0.00 0.00 0.00 51
20240524183723 78 203 7.0 10.0 0.00 0.00 0.00 49
20240524182645 78 203 7.0 10.0 0.00 0.00 0.00 49
20240524182550 78 203 7.0 10.0 0.00 0.00 0.00 39
20240524182152 78 248 7.0 10.0 0.00 0.00 0.00 49
20240524182058 78 248 7.0 10.0 0.00 0.00 0.00 49
20240524182003 78 225 7.0 10.0 0.00 0.00 0.00 49
20240524181908 78 225 7.0 10.0 0.00 0.00 0.00 49
20240524181814 78 225 7.0 10.0 0.00 0.00 0.00 49
20240524181719 78 225 7.0 10.0 0.00 0.00 0.00 50
20240524181624 78 225 7.0 10.0 0.00 0.00 0.00 50
20240524181529 78 225 7.0 10.0 0.00 0.00 0.00 50
20240524181434 78 248 7.0 10.0 0.00 0.00 0.00 50
20240524181245 77 248 6.0 10.0 0.00 0.00 0.00 51
20240524181150 77 248 6.0 10.0 0.00 0.00 0.00 51
20240524181055 77 90 6.0 10.0 0.00 0.00 0.00 51
20240524181000 77 90 6.0 10.0 0.00 0.00 0.00 51
20240524180906 77 270 6.0 10.0 0.00 0.00 0.00 51
20240524180811 77 270 6.0 10.0 0.00 0.00 0.00 50
20240524180716 77 293 6.0 10.0 0.00 0.00 0.00 50
20240524180621 78 293 6.0 10.0 0.00 0.00 0.00 50
20240524180432 78 338 6.0 10.0 0.00 0.00 0.00 50
20240524180337 78 338 6.0 9.0 0.00 0.00 0.00 50
20240524180242 78 270 6.0 9.0 0.00 0.00 0.00 50
20240524180147 77 270 6.0 9.0 0.00 0.00 0.00 50
20240524180053 77 203 6.0 9.0 0.00 0.00 0.00 50
20240524175958 77 203 6.0 9.0 0.00 0.00 0.00 50
20240524175903 77 270 6.0 9.0 0.00 0.00 0.00 50
20240524175809 77 270 6.0 9.0 0.00 0.00 0.00 51
20240524175714 77 203 6.0 9.0 0.00 0.00 0.00 51
20240524175542 78 203 6.0 9.0 0.00 0.00 0.00 49
20240524175448 78 270 6.0 9.0 0.00 0.00 0.00 49
20240524175353 78 270 6.0 9.0 0.00 0.00 0.00 49
20240524175258 78 225 6.0 9.0 0.00 0.00 0.00 49
20240524175203 78 225 6.0 8.0 0.00 0.00 0.00 50
20240524175108 78 225 6.0 8.0 0.00 0.00 0.00 50
20240524175014 78 225 6.0 8.0 0.00 0.00 0.00 51
20240524174919 78 270 6.0 8.0 0.00 0.00 0.00 51
20240524174824 77 270 6.0 8.0 0.00 0.00 0.00 51
20240524174748 77 203 6.0 14.0 0.00 0.00 0.00 51
20240524174635 77 225 7.0 14.0 0.00 0.00 0.00 51
20240524174540 77 270 7.0 14.0 0.00 0.00 0.00 51
20240524174445 77 270 7.0 14.0 0.00 0.00 0.00 51
20240524174350 77 180 6.0 14.0 0.00 0.00 0.00 51
20240524174256 77 180 6.0 14.0 0.00 0.00 0.00 51
20240524174201 77 270 7.0 14.0 0.00 0.00 0.00 51
20240524174106 77 270 7.0 14.0 0.00 0.00 0.00 52
20240524174011 77 225 7.0 14.0 0.00 0.00 0.00 52
20240524173917 76 225 7.0 14.0 0.00 0.00 0.00 53
20240524173822 76 225 7.0 14.0 0.00 0.00 0.00 53
20240524173538 76 225 7.0 14.0 0.00 0.00 0.00 52
20240524173348 76 293 7.0 14.0 0.00 0.00 0.00 52
20240524173254 77 293 7.0 14.0 0.00 0.00 0.00 50
20240524173159 77 293 7.0 14.0 0.00 0.00 0.00 50
20240524173104 76 293 7.0 12.0 0.00 0.00 0.00 52
20240524173009 76 203 6.0 12.0 0.00 0.00 0.00 52
20240524172914 76 203 6.0 12.0 0.00 0.00 0.00 52
20240524172819 76 0 6.0 12.0 0.00 0.00 0.00 52
20240524172725 77 0 7.0 12.0 0.00 0.00 0.00 52
20240524172630 77 225 7.0 12.0 0.00 0.00 0.00 52
20240524172535 76 225 7.0 12.0 0.00 0.00 0.00 51
20240524172441 76 270 7.0 12.0 0.00 0.00 0.00 51
20240524172346 76 270 7.0 12.0 0.00 0.00 0.00 52
20240524172251 76 270 7.0 12.0 0.00 0.00 0.00 52
20240524172156 76 270 7.0 12.0 0.00 0.00 0.00 52
20240524172101 76 338 7.0 12.0 0.00 0.00 0.00 52
20240524172007 76 338 7.0 12.0 0.00 0.00 0.00 52
20240524171912 76 203 7.0 12.0 0.00 0.00 0.00 52
20240524171817 76 203 6.0 11.0 0.00 0.00 0.00 52
20240524171722 76 203 6.0 11.0 0.00 0.00 0.00 52
20240524171627 76 203 6.0 11.0 0.00 0.00 0.00 52
20240524171533 76 270 7.0 11.0 0.00 0.00 0.00 52
20240524171438 76 270 7.0 11.0 0.00 0.00 0.00 51
20240524171343 76 315 7.0 11.0 0.00 0.00 0.00 51
20240524171248 76 315 7.0 11.0 0.00 0.00 0.00 53
20240524171154 76 225 6.0 11.0 0.00 0.00 0.00 53
20240524171059 75 225 6.0 11.0 0.00 0.00 0.00 53
20240524171004 75 248 7.0 11.0 0.00 0.00 0.00 53
20240524170909 76 248 6.0 11.0 0.00 0.00 0.00 52
20240524170815 76 270 6.0 11.0 0.00 0.00 0.00 52
20240524170720 76 270 6.0 11.0 0.00 0.00 0.00 53
20240524170625 76 270 6.0 11.0 0.00 0.00 0.00 53
20240524170530 76 270 7.0 11.0 0.00 0.00 0.00 52
20240524170435 76 293 7.0 11.0 0.00 0.00 0.00 52
20240524170341 75 293 7.0 11.0 0.00 0.00 0.00 53
20240524170246 75 113 7.0 11.0 0.00 0.00 0.00 53
20240524170151 76 113 7.0 11.0 0.00 0.00 0.00 51
20240524170058 76 248 7.0 11.0 0.00 0.00 0.00 51
20240524170002 76 248 6.0 8.0 0.00 0.00 0.00 52
20240524165907 76 270 7.0 8.0 0.00 0.00 0.00 52
20240524165812 75 270 7.0 8.0 0.00 0.00 0.00 54
20240524165717 75 225 6.0 6.0 0.00 0.00 0.00 54
20240524165625 0 225 5.0 5.0 0.00 0.00 0.00